WB4FAY-4 Weather Reports


time (UTC)temp
F
wind
direction
speed
knots
gust
knots
rain 1hr
in
rain 24hr
in
rain mn
in
humidity
%
barometer
mb
20260507034017 68 346 0.0 3.5 0.00 0.00 0.00 97 1013.0
20260507033517 68 96 0.0 2.6 0.00 0.00 0.00 96 1012.3
20260507033018 68 96 0.9 4.3 0.00 0.00 0.00 96 1012.2
20260507032517 68 72 1.7 4.3 0.00 0.00 0.00 96 1011.5
20260507032017 68 90 0.9 3.5 0.00 0.00 0.00 96 1012.4
20260507031517 68 97 3.5 4.3 0.00 0.00 0.00 96 1013.2
20260507031018 68 0 0.0 0.0 0.00 0.00 0.00 96 1013.9
20260507030517 68 0 0.0 0.0 0.00 0.00 0.00 96 1014.1
20260507030017 68 330 0.0 1.7 0.00 0.00 0.00 96 1013.8
20260507025517 68 157 0.9 2.6 0.00 0.00 0.00 96 1013.1
20260507025017 68 0 0.0 0.0 0.00 0.00 0.00 96 1013.6
20260507024518 68 89 0.0 3.5 0.00 0.00 0.00 96 1013.3
20260507024017 68 75 2.6 3.5 0.00 0.00 0.00 96 1013.1
20260507023516 68 86 0.9 6.1 0.00 0.00 0.00 96 1012.7
20260507023017 68 16 3.5 6.1 0.00 0.00 0.00 96 1012.6
20260507022517 68 68 1.7 7.0 0.00 0.00 0.00 96 1012.7
20260507022017 68 123 0.0 6.1 0.00 0.00 0.00 96 1012.7
20260507021523 69 85 2.6 6.1 0.00 0.00 0.00 96 1012.8
20260507021017 69 25 1.7 10.4 0.00 0.00 0.00 96 1012.8
20260507020517 69 85 2.6 7.8 0.00 0.00 0.00 96 1012.5
20260507020017 70 25 2.6 13.0 0.00 0.00 0.00 96 1012.5
20260507015517 70 349 2.6 6.1 0.00 0.00 0.00 96 1013.0
20260507015017 71 328 2.6 7.8 0.00 0.00 0.00 96 1012.7
20260507014518 72 27 5.2 5.2 0.00 0.00 0.00 96 1012.7
20260507014017 72 20 3.5 9.6 0.00 0.00 0.00 96 1012.5
20260507013517 73 3 3.5 2.6 0.00 0.00 0.00 97 1012.1
20260507013017 73 0 0.0 0.0 0.00 0.00 0.00 97 1011.8
20260507012518 73 0 0.0 0.0 0.00 0.00 0.00 97 1012.1
20260507012017 73 0 0.0 0.0 0.00 0.00 0.00 97 1011.8
20260507011518 73 0 0.0 0.0 0.00 0.00 0.00 97 1012.1
20260507011017 73 0 0.0 0.0 0.00 0.00 0.00 97 1011.5
20260507010517 73 23 0.0 0.0 0.00 0.00 0.00 97 1011.1
20260507010017 73 0 0.0 0.0 0.00 0.00 0.00 97 1011.5
20260507005517 73 233 0.0 0.0 0.00 0.00 0.00 96 1011.4
20260507005017 73 274 0.0 1.7 0.00 0.00 0.00 96 1011.8
20260507004517 73 0 0.9 0.0 0.00 0.00 0.00 96 1012.0
20260507004018 73 216 0.0 0.9 0.00 0.00 0.00 96 1012.1
20260507003517 73 232 0.0 0.9 0.00 0.00 0.00 96 1012.0
20260507003017 73 0 0.0 0.0 0.00 0.00 0.00 96 1011.7
20260507002517 73 215 0.0 0.9 0.00 0.00 0.00 96 1011.5
20260507002017 73 0 0.0 0.0 0.00 0.00 0.00 96 1011.5
20260507001517 73 196 0.0 4.3 0.00 0.00 0.00 96 1011.7
20260507001018 73 260 0.0 1.7 0.00 0.00 0.00 96 1011.8
20260507000517 74 359 0.0 0.0 0.00 0.00 0.00 96 1012.0
20260507000017 74 0 0.0 0.0 0.00 0.00 0.00 96 1011.6
20260506235518 73 284 0.0 1.7 0.00 0.00 0.00 96 1011.8
20260506235017 74 260 0.9 2.6 0.00 0.00 0.00 96 1011.7
20260506234518 73 0 0.0 0.0 0.00 0.00 0.00 96 1011.4
20260506234018 73 240 0.0 1.7 0.00 0.00 0.00 96 1011.7
20260506233517 74 275 0.9 1.7 0.00 0.00 0.00 96 1012.1
20260506233018 73 198 0.0 2.6 0.00 0.00 0.00 96 1012.0
20260506232517 73 236 0.9 2.6 0.00 0.00 0.00 96 1012.1
20260506232017 74 203 0.0 3.5 0.00 0.00 0.00 96 1012.4
20260506231517 73 198 1.7 5.2 0.00 0.00 0.00 96 1012.5
20260506231018 74 192 2.6 3.5 0.00 0.00 0.00 96 1012.5
20260506230517 73 226 0.0 2.6 0.00 0.00 0.00 96 1012.5
20260506230017 73 270 0.9 2.6 0.00 0.00 0.00 96 1012.6
20260506225517 73 189 0.9 3.5 0.00 0.00 0.00 96 1012.5
20260506225017 73 217 1.7 4.3 0.00 0.00 0.00 96 1012.4
20260506224517 73 222 0.0 0.9 0.00 0.00 0.00 96 1012.4
20260506224017 73 257 0.0 2.6 0.00 0.00 0.00 96 1012.3
20260506223517 73 196 0.9 5.2 0.00 0.00 0.00 96 1012.0
20260506223017 73 195 2.6 6.1 0.00 0.00 0.00 96 1012.1
20260506222518 73 212 1.7 3.5 0.00 0.00 0.00 96 1012.2
20260506222017 73 230 0.9 2.6 0.00 0.00 0.00 96 1012.2
20260506221517 73 186 0.9 6.1 0.00 0.00 0.00 96 1012.2
20260506221017 73 227 0.0 0.9 0.00 0.00 0.00 96 1012.3
20260506220518 73 215 0.0 3.5 0.00 0.00 0.00 96 1012.4
20260506220017 73 263 1.7 3.5 0.00 0.00 0.00 96 1012.4
20260506215517 73 237 1.7 2.6 0.00 0.00 0.00 96 1012.4
20260506215017 73 227 0.0 3.5 0.00 0.00 0.00 96 1012.4
20260506214517 73 196 2.6 6.1 0.00 0.00 0.00 96 1012.5
20260506214017 73 189 0.9 7.8 0.00 0.00 0.00 95 1012.5
20260506213517 73 200 0.9 6.1 0.00 0.00 0.00 95 1012.4
20260506213017 73 227 0.9 4.3 0.00 0.00 0.00 95 1012.4
20260506212517 73 198 1.7 2.6 0.00 0.00 0.00 95 1012.5
20260506212017 73 191 2.6 6.1 0.00 0.00 0.00 95 1012.6
20260506211517 73 196 2.6 6.1 0.00 0.00 0.00 94 1012.6
20260506211018 73 213 1.7 4.3 0.00 0.00 0.00 93 1012.6
20260506210517 74 189 3.5 5.2 0.00 0.00 0.00 93 1012.7
20260506210017 74 199 0.0 2.6 0.00 0.00 0.00 92 1012.8
20260506205517 74 198 0.0 4.3 0.00 0.00 0.00 91 1012.8
20260506205017 74 203 2.6 5.2 0.00 0.00 0.00 90 1012.9
20260506204517 75 299 3.5 2.6 0.00 0.00 0.00 88 1012.8
20260506204017 75 261 0.0 2.6 0.00 0.00 0.00 86 1012.7
20260506203517 75 271 2.6 2.6 0.00 0.00 0.00 85 1012.7
20260506203017 76 227 1.7 3.5 0.00 0.00 0.00 83 1012.8
20260506202518 76 195 1.7 3.5 0.00 0.00 0.00 81 1012.9
20260506202017 76 226 2.6 5.2 0.00 0.00 0.00 80 1012.9
20260506201523 77 208 0.9 3.5 0.00 0.00 0.00 80 1013.0
20260506201017 77 193 0.9 7.0 0.00 0.00 0.00 80 1013.0
20260506200517 77 196 3.5 6.1 0.00 0.00 0.00 79 1013.1
20260506200017 77 206 1.7 7.0 0.00 0.00 0.00 78 1013.1
20260506195518 77 258 0.9 5.2 0.00 0.00 0.00 78 1013.2
20260506195017 77 200 1.7 4.3 0.00 0.00 0.00 77 1013.4
20260506194517 77 251 1.7 4.3 0.00 0.00 0.00 77 1013.5
20260506194017 77 188 3.5 8.7 0.00 0.00 0.00 78 1013.6
20260506193517 77 254 2.6 5.2 0.00 0.00 0.00 78 1013.7
20260506193018 77 189 0.9 3.5 0.00 0.00 0.00 78 1013.8
20260506192517 77 193 2.6 6.1 0.00 0.00 0.00 78 1014.0
20260506192018 77 243 1.7 5.2 0.00 0.00 0.00 78 1014.0
20260506191518 77 236 0.0 4.3 0.00 0.00 0.00 78 1014.0
20260506191018 77 208 2.6 6.1 0.00 0.00 0.00 77 1014.0
20260506190518 77 206 2.6 7.0 0.00 0.00 0.00 77 1014.1
20260506190018 77 203 4.3 6.1 0.00 0.00 0.00 76 1014.1
20260506185517 77 257 0.9 4.3 0.00 0.00 0.00 77 1014.1
20260506185017 77 198 2.6 3.5 0.00 0.00 0.00 77 1014.2
20260506184517 77 191 2.6 3.5 0.00 0.00 0.00 77 1014.2
20260506184017 77 233 1.7 2.6 0.00 0.00 0.00 77 1014.2
20260506183517 77 257 1.7 2.6 0.00 0.00 0.00 77 1014.2
20260506183017 77 191 0.9 4.3 0.00 0.00 0.00 77 1014.2
20260506182517 76 186 2.6 5.2 0.00 0.00 0.00 77 1014.4
20260506182017 77 200 2.6 7.8 0.00 0.00 0.00 77 1014.5
20260506181518 77 188 2.6 8.7 0.00 0.00 0.00 76 1014.3
20260506181017 77 199 4.3 7.0 0.00 0.00 0.00 76 1014.4
20260506180517 77 193 3.5 7.8 0.00 0.00 0.00 75 1014.3
20260506180017 77 203 4.3 10.4 0.00 0.00 0.00 74 1014.4
20260506175517 77 216 0.9 6.1 0.00 0.00 0.00 75 1014.4
20260506175017 77 202 1.7 6.1 0.00 0.00 0.00 75 1014.5
20260506174517 77 195 3.5 9.6 0.00 0.00 0.00 74 1014.4
20260506174017 77 191 3.5 9.6 0.00 0.00 0.00 74 1014.6
20260506173517 77 299 5.2 7.8 0.00 0.00 0.00 74 1014.4
20260506173018 78 203 2.6 7.0 0.00 0.00 0.00 73 1014.6
20260506172517 78 215 4.3 7.0 0.00 0.00 0.00 73 1014.7
20260506172018 78 191 2.6 10.4 0.00 0.00 0.00 72 1014.7
20260506171517 78 202 2.6 8.7 0.00 0.00 0.00 71 1014.6
20260506171017 78 184 1.7 9.6 0.00 0.00 0.00 72 1014.6
20260506170518 78 202 4.3 7.8 0.00 0.00 0.00 71 1014.6
20260506170018 78 193 7.0 13.9 0.00 0.00 0.00 71 1014.5
20260506165518 78 200 5.2 9.6 0.00 0.00 0.00 72 1014.6
20260506165018 78 236 2.6 7.0 0.00 0.00 0.00 72 1014.5
20260506164518 78 189 4.3 8.7 0.00 0.00 0.00 72 1014.7
20260506164018 77 254 2.6 6.1 0.00 0.00 0.00 72 1014.7
20260506163518 78 195 5.2 8.7 0.00 0.00 0.00 73 1014.7
20260506163018 77 192 5.2 6.1 0.00 0.00 0.00 72 1014.7
20260506162518 77 203 2.6 13.0 0.00 0.00 0.00 71 1014.6
20260506162018 77 193 2.6 10.4 0.00 0.00 0.00 72 1014.7
20260506161518 77 181 2.6 7.0 0.00 0.00 0.00 72 1014.6
20260506161018 77 203 6.1 8.7 0.00 0.00 0.00 72 1014.7
20260506160518 77 278 4.3 5.2 0.00 0.00 0.00 72 1014.7
20260506160017 77 202 5.2 7.0 0.00 0.00 0.00 73 1014.5
20260506155518 77 193 2.6 7.0 0.00 0.00 0.00 73 1014.7
20260506155017 77 261 2.6 6.1 0.00 0.00 0.00 74 1014.8
20260506154517 76 253 4.3 6.1 0.00 0.00 0.00 75 1014.7
20260506154017 76 215 2.6 6.1 0.00 0.00 0.00 75 1014.8
20260506153517 76 236 2.6 5.2 0.00 0.00 0.00 76 1014.8
20260506153017 75 196 1.7 6.1 0.00 0.00 0.00 76 1014.8
20260506152517 75 208 1.7 7.0 0.00 0.00 0.00 78 1014.9
20260506152017 74 179 5.2 4.3 0.00 0.00 0.00 79 1015.0
20260506151517 74 292 1.7 4.3 0.00 0.00 0.00 78 1014.9
20260506151018 74 199 2.6 8.7 0.00 0.00 0.00 78 1015.0
20260506150517 74 185 5.2 7.0 0.00 0.00 0.00 78 1015.1
20260506150017 74 215 3.5 3.5 0.00 0.00 0.00 80 1015.1
20260506145517 73 189 1.7 7.0 0.00 0.00 0.00 79 1015.1
20260506145017 73 196 3.5 8.7 0.00 0.00 0.00 79 1015.3
20260506144517 73 226 3.5 7.0 0.00 0.00 0.00 79 1015.3
20260506144017 73 202 3.5 4.3 0.00 0.00 0.00 81 1015.2
20260506143517 73 213 2.6 7.0 0.00 0.00 0.00 81 1015.2
20260506143017 72 199 2.6 8.7 0.00 0.00 0.00 82 1015.1
20260506142518 72 196 3.5 7.8 0.00 0.00 0.00 82 1015.1
20260506142018 72 186 3.5 7.8 0.00 0.00 0.00 82 1015.1
20260506141518 72 202 2.6 9.6 0.00 0.00 0.00 83 1015.0
20260506141018 72 215 2.6 6.1 0.00 0.00 0.00 83 1015.1
20260506140518 71 301 1.7 4.3 0.00 0.00 0.00 84 1015.1
20260506140018 71 227 1.7 6.1 0.00 0.00 0.00 84 1015.1
20260506135518 71 198 2.6 4.3 0.00 0.00 0.00 84 1015.1
20260506135017 71 199 1.7 6.1 0.00 0.00 0.00 85 1015.2
20260506134517 71 268 6.1 5.2 0.00 0.00 0.00 86 1015.3
20260506134017 71 188 2.6 9.6 0.00 0.00 0.00 86 1015.3
20260506133517 70 195 2.6 7.8 0.00 0.00 0.00 86 1015.3
20260506133017 70 257 0.9 5.2 0.00 0.00 0.00 87 1015.3
20260506132517 70 193 1.7 5.2 0.00 0.00 0.00 87 1015.4
20260506132017 70 188 0.0 3.5 0.00 0.00 0.00 87 1015.4
20260506131517 70 196 0.9 6.1 0.00 0.00 0.00 87 1015.4
20260506131017 69 215 0.0 6.1 0.00 0.00 0.00 88 1015.5
20260506130517 69 127 0.9 4.3 0.00 0.00 0.00 88 1015.5
20260506130017 69 192 2.6 3.5 0.00 0.00 0.00 88 1015.5
20260506125518 69 202 0.0 5.2 0.00 0.00 0.00 88 1015.3
20260506125017 69 217 1.7 4.3 0.00 0.00 0.00 89 1015.3
20260506124516 69 184 1.7 7.0 0.00 0.00 0.00 89 1015.4
20260506124017 69 205 2.6 4.3 0.00 0.00 0.00 88 1015.3
20260506123517 69 302 3.5 5.2 0.00 0.00 0.00 89 1015.4
20260506123017 69 215 2.6 6.1 0.00 0.00 0.00 89 1015.2
20260506122517 69 215 2.6 6.1 0.00 0.00 0.00 88 1015.3
20260506122017 69 181 2.6 7.0 0.00 0.00 0.00 89 1015.2
20260506121517 68 195 2.6 7.0 0.00 0.00 0.00 88 1015.0
20260506121017 68 206 1.7 3.5 0.00 0.00 0.00 88 1014.9
20260506120517 68 196 3.5 6.1 0.00 0.00 0.00 88 1014.7
20260506120018 68 186 1.7 4.3 0.00 0.00 0.00 88 1014.7
20260506115517 68 226 1.7 4.3 0.00 0.00 0.00 88 1014.5
20260506115017 68 217 1.7 4.3 0.00 0.00 0.00 88 1014.4
20260506114517 68 199 2.6 5.2 0.00 0.00 0.00 87 1014.5
20260506114018 68 223 0.0 4.3 0.00 0.00 0.00 87 1014.4
20260506113517 68 219 1.7 3.5 0.00 0.00 0.00 87 1014.5
20260506113017 68 240 1.7 3.5 0.00 0.00 0.00 87 1014.2
20260506112517 68 240 0.9 4.3 0.00 0.00 0.00 87 1014.0
20260506112017 68 203 1.7 4.3 0.00 0.00 0.00 87 1014.0
20260506111518 68 195 2.6 4.3 0.00 0.00 0.00 87 1014.0
20260506111017 68 217 1.7 2.6 0.00 0.00 0.00 86 1013.8
20260506110517 68 196 0.9 5.2 0.00 0.00 0.00 86 1013.8
20260506110017 68 193 2.6 4.3 0.00 0.00 0.00 86 1013.8
20260506105517 68 198 1.7 4.3 0.00 0.00 0.00 86 1013.9
20260506105017 68 191 1.7 3.5 0.00 0.00 0.00 86 1013.8
20260506104517 68 196 2.6 5.2 0.00 0.00 0.00 86 1013.8
20260506104017 68 217 1.7 3.5 0.00 0.00 0.00 86 1013.8
20260506103517 68 220 2.6 5.2 0.00 0.00 0.00 86 1013.7
20260506103017 68 222 1.7 4.3 0.00 0.00 0.00 85 1013.6
20260506102517 68 246 2.6 4.3 0.00 0.00 0.00 85 1013.5
20260506102017 68 195 1.7 4.3 0.00 0.00 0.00 85 1013.4
20260506101517 68 184 1.7 4.3 0.00 0.00 0.00 85 1013.4
20260506101017 68 188 0.9 4.3 0.00 0.00 0.00 85 1013.4
20260506100517 68 198 3.5 4.3 0.00 0.00 0.00 85 1013.2
20260506100017 68 236 1.7 3.5 0.00 0.00 0.00 84 1013.1
20260506095517 68 192 1.7 4.3 0.00 0.00 0.00 84 1013.2
20260506095017 68 227 2.6 3.5 0.00 0.00 0.00 84 1013.1
20260506094517 68 199 0.9 4.3 0.00 0.00 0.00 84 1013.0
20260506094018 68 191 2.6 3.5 0.00 0.00 0.00 84 1013.1
20260506093517 69 182 0.9 5.2 0.00 0.00 0.00 84 1012.9
20260506093017 69 198 2.6 3.5 0.00 0.00 0.00 83 1012.9
20260506092517 69 193 0.0 2.6 0.00 0.00 0.00 83 1012.8
20260506092018 68 195 1.7 3.5 0.00 0.00 0.00 83 1012.8
20260506091518 69 230 0.9 2.6 0.00 0.00 0.00 83 1012.8
20260506091017 69 193 0.0 5.2 0.00 0.00 0.00 83 1012.8
20260506090518 69 224 2.6 3.5 0.00 0.00 0.00 83 1012.8
20260506090017 69 236 0.9 5.2 0.00 0.00 0.00 82 1012.8
20260506085517 69 253 4.3 6.1 0.00 0.00 0.00 82 1012.5
20260506085017 69 203 2.6 4.3 0.00 0.00 0.00 82 1012.5
20260506084517 69 205 1.7 5.2 0.00 0.00 0.00 82 1012.5
20260506084017 69 254 2.6 6.1 0.00 0.00 0.00 81 1012.5
20260506083517 69 219 1.7 4.3 0.00 0.00 0.00 81 1012.5
20260506083017 69 246 2.6 4.3 0.00 0.00 0.00 81 1012.5
20260506082517 69 217 1.7 5.2 0.00 0.00 0.00 81 1012.5
20260506082018 69 199 3.5 6.1 0.00 0.00 0.00 81 1012.5
20260506081517 69 191 2.6 4.3 0.00 0.00 0.00 80 1012.6
20260506081018 69 241 1.7 5.2 0.00 0.00 0.00 80 1012.6
20260506080517 69 229 2.6 4.3 0.00 0.00 0.00 80 1012.6
20260506073517 70 205 0.0 6.1 0.00 0.00 0.00 77 1012.7
20260506073017 70 230 3.5 4.3 0.00 0.00 0.00 77 1012.6
20260506072517 70 208 2.6 4.3 0.00 0.00 0.00 77 1012.6
20260506072017 70 199 3.5 3.5 0.00 0.00 0.00 77 1012.6
20260506071518 70 234 2.6 3.5 0.00 0.00 0.00 76 1012.7
20260506071017 70 258 1.7 5.2 0.00 0.00 0.00 76 1012.6
20260506070518 70 188 4.3 4.3 0.00 0.00 0.00 76 1012.8
20260506062517 70 188 1.7 5.2 0.00 0.00 0.00 74 1013.0
20260506062017 70 212 2.6 5.2 0.00 0.00 0.00 74 1013.1
20260506061517 71 202 3.5 2.6 0.00 0.00 0.00 73 1013.2
20260506061017 71 272 1.7 5.2 0.00 0.00 0.00 73 1013.3
20260506060517 71 203 1.7 5.2 0.00 0.00 0.00 73 1013.3
20260506051017 71 203 2.6 6.1 0.00 0.00 0.00 71 1013.3
20260506050517 72 200 2.6 6.1 0.00 0.00 0.00 71 1013.2
20260506045017 72 200 1.7 6.1 0.00 0.00 0.00 71 1013.3
20260506044517 72 200 2.6 5.2 0.00 0.00 0.00 70 1013.2
20260506044017 72 184 1.7 7.0 0.00 0.00 0.00 70 1013.1
20260506043517 72 199 6.1 5.2 0.00 0.00 0.00 70 1013.1
20260506043017 72 229 3.5 7.0 0.00 0.00 0.00 70 1013.0
20260506042517 72 264 2.6 4.3 0.00 0.00 0.00 69 1012.9
20260506042017 72 189 1.7 8.7 0.00 0.00 0.00 69 1013.0
20260506041517 72 195 2.6 7.0 0.00 0.00 0.00 69 1013.1
20260506041017 72 178 2.6 7.0 0.00 0.00 0.00 69 1013.2
20260506040517 72 199 1.7 6.1 0.00 0.00 0.00 69 1013.1
20260506040017 72 224 0.9 6.1 0.00 0.00 0.00 69 1013.1
20260506035518 73 189 2.6 8.7 0.00 0.00 0.00 68 1013.2
20260506035017 72 186 1.7 6.1 0.00 0.00 0.00 68 1013.2
20260506034517 73 199 1.7 7.8 0.00 0.00 0.00 68 1013.1